sat.trackr.live / text

‹ back to catalog

GSAT-31

NORAD 44035 · 2019-007B

PAYLOAD ACTIVE UNKNOWN

§ Identity

Operator
Country
IND
Launch date
2019-02-05
Launch site
FRGUI
Launch vehicle
Mass (kg)
RCS (m²)

Purposes: comms

External: N2YO · Heavens-Above · Gunter

§ Orbital elements

Epoch: 2026-05-25T03:58:15.953088Z

Period
1,436.08 min
Inclination
0.0512°
Eccentricity
0.0001765
Mean motion
1.00272847 rev/d
Perigee alt
35,778.9 km
Apogee alt
35,793.7 km
Semi-major
42,164.4 km
B*
0.0000e+0
RAAN
105.3487°
Arg perigee
249.3397°
Mean anomaly
355.5453°
Rev number
2,673

§ Raw data

GSAT-311 44035U 19007B   26145.16546242  .00000123  00000+0  00000+0 0  99952 44035   0.0512 105.3487 0001765 249.3397 355.5453  1.00272847 26739

JSON: /api/v1/satellites/44035 · /tle

For live sub-satellite position, see the globe view (requires WebGL).

§ Visibility from observer

Set your observer location to see the next 7 days of passes ≥ 10°. The values pass through the URL so the page stays shareable.

No JS? Fill the form by hand. The geolocation button needs JavaScript.